User: anonymous   Login
Location: Bowman Observatory
(41.0326°N, 73.6210°W)
Time: 05:27:06
(UTC-05:00)
Language:

Cosmos 2297 - Orbit

View from above orbital plane
View from above orbital plane
View from above satellite
View from above satellite

Ground track
Ground track

The orbit data is extracted from the following two-line orbital elements,

1 23404U 94077A   17321.49370884  .00000215  00000-0  13934-3 0  9998
2 23404  71.0130 332.0546 0017631 275.4429  84.4681 14.13503951185738
Epoch (UTC): 17 November 2017 11:50:56
Eccentricity: 0.0017631
inclination: 71.0130°
perigee height: 834 km
apogee height: 860 km
right ascension of ascending node: 332.0546°
argument of perigee: 275.4429°
revolutions per day: 14.13503951
mean anomaly at epoch: 84.4681°
orbit number at epoch: 18573

The dashed part of the orbit path shows where the satellite is in the earth's shadow,  

DLR